Riga, Latvia

10:54 AM EEST on May 27, 2017 (GMT +0300)
Riga International

Weather History for EVRA - July, 2013

Change the Weather History Date:

Thursday, July 18, 2013

  Actual Average Record
Temperature  
Mean Temperature 64 °F -  
Max Temperature 80 °F 72 °F 89 °F (2001)
Min Temperature 49 °F 53 °F 48 °F (1996)
Growing Degree Days 14 (Base 50)    
Moisture  
Dew Point 56 °F    
Average Humidity 69    
Maximum Humidity 100    
Minimum Humidity 40    
Precipitation  
Precipitation 0.20 in 0.10 in - ()
Sea Level Pressure  
Sea Level Pressure 29.98 in    
Wind  
Wind Speed 5 mph ()    
Max Wind Speed 12 mph    
Max Gust Speed -    
Visibility 6.1 miles    
Events Rain , Thunderstorm    
Averages and records for this station are not official NWS values.
T = Trace of Precipitation, MM = Missing Value Source: Averaged Metar Reports

Daily Weather History Graph

Daily Weather History Graph

Search for Another Location

Airport or City:

Trip Planner

Search our weather history database for the weather conditions in past years. The results will help you decide how hot, cold, wet, or windy it might be!

Date:

Astronomy

Jul. 18, 2013 Rise Set
Actual Time 4:56 AM EEST 10:02 PM EEST
Civil Twilight 3:58 AM EEST 10:59 PM EEST
Nautical Twilight 2:02 AM EEST 1:05 AM EEST
Astronomical Twilight Sun does not set Sun does not set
Moon 5:27 PM EEST (7/18) 12:51 AM EEST (7/18)
Length of Visible Light 19h 00m
Length of Day
17h 05m
Waxing Gibbous, 74% of the Moon is Illuminated
Jul 18
Waxing Gibbous
Jul 22
Full
Jul 29
Last Quarter
Aug 7
New
Aug 14
First Quarter

Hourly Weather History & Observations

Time (EEST) Temp. Dew Point Humidity Pressure Visibility Wind Dir Wind Speed Gust Speed Precip Events Conditions
12:20 AM 59.0 °F 50.0 °F 72% 30.04 in - West 3.5 mph - N/A   Clear
12:50 AM 59.0 °F 50.0 °F 72% 30.04 in - West 3.5 mph - N/A   Clear
1:20 AM 59.0 °F 50.0 °F 72% 30.04 in - West 3.5 mph - N/A   Clear
1:50 AM 57.2 °F 50.0 °F 77% 30.04 in - West 3.5 mph - N/A   Clear
2:20 AM 57.2 °F 50.0 °F 77% 30.04 in - WSW 3.5 mph - N/A   Clear
2:50 AM 57.2 °F 50.0 °F 77% 30.04 in - WSW 3.5 mph - N/A   Clear
3:00 AM 56 °F 50 °F 74% 30.06 in 6 mi 2.2 mph - -  
3:20 AM 57.2 °F 50.0 °F 77% 30.04 in - WSW 3.5 mph - N/A   Clear
3:50 AM 57.2 °F 50.0 °F 77% 30.04 in - Variable 2.3 mph - N/A   Clear
4:20 AM 55.4 °F 50.0 °F 82% 30.04 in - SW 3.5 mph - N/A   Clear
4:50 AM 55.4 °F 50.0 °F 82% 30.04 in - WSW 3.5 mph - N/A   Clear
5:20 AM 53.6 °F 50.0 °F 88% 30.04 in - SSW 3.5 mph - N/A   Clear
5:50 AM 50.0 °F 48.2 °F 94% 30.04 in - South 5.8 mph - N/A   Clear
6:20 AM 50.0 °F 50.0 °F 100% 30.04 in - South 5.8 mph - N/A   Clear
6:50 AM 53.6 °F 50.0 °F 88% 30.04 in - South 5.8 mph - N/A   Clear
7:20 AM 57.2 °F 51.8 °F 82% 30.04 in - SSW 4.6 mph - N/A   Clear
7:50 AM 60.8 °F 51.8 °F 72% 30.04 in - SSW 5.8 mph - N/A   Clear
8:20 AM 62.6 °F 53.6 °F 72% 30.04 in - SW 5.8 mph - N/A   Clear
8:50 AM 66.2 °F 55.4 °F 68% 30.04 in - SW 6.9 mph - N/A   Clear
9:00 AM 67 °F 56 °F 59% 30.04 in 6 mi 6.7 mph - -  
9:20 AM 69.8 °F 55.4 °F 60% 30.04 in - SSW 6.9 mph - N/A   Clear
9:50 AM 69.8 °F 55.4 °F 60% 30.01 in - SSW 8.1 mph - N/A   Clear
10:20 AM 71.6 °F 57.2 °F 60% 30.01 in - SW 8.1 mph - N/A   Clear
10:50 AM 73.4 °F 57.2 °F 57% 30.01 in - Variable 8.1 mph - N/A   Clear
11:20 AM 73.4 °F 57.2 °F 57% 30.01 in - WSW 6.9 mph - N/A   Clear
11:50 AM 75.2 °F 57.2 °F 53% 30.01 in - SW 9.2 mph - N/A   Clear
12:20 PM 77.0 °F 55.4 °F 47% 30.01 in 6.2 mi SSW 11.5 mph - N/A   Partly Cloudy
12:50 PM 78.8 °F 55.4 °F 44% 29.98 in 6.2 mi SSW 9.2 mph - N/A   Partly Cloudy
1:20 PM 78.8 °F 57.2 °F 47% 29.98 in - SSW 10.4 mph - N/A   Clear
1:50 PM 78.8 °F 57.2 °F 47% 29.98 in - SSW 11.5 mph - N/A   Clear
2:20 PM 77.0 °F 59.0 °F 54% 29.98 in - SW 9.2 mph - N/A   Clear
2:50 PM 77.0 °F 59.0 °F 54% 29.95 in 6.2 mi WSW 5.8 mph - N/A   Scattered Clouds
3:00 PM 80 °F 60 °F 40% 29.96 in 6 mi 6.7 mph - -  
3:20 PM 78.8 °F 59.0 °F 51% 29.95 in 6.2 mi SSW 6.9 mph - N/A Thunderstorm Thunderstorm
3:50 PM 69.8 °F 64.4 °F 83% 29.92 in 6.2 mi SSW 5.8 mph - N/A Thunderstorm Thunderstorm
4:20 PM 68.0 °F 64.4 °F 88% 29.95 in 6.2 mi SW 9.2 mph - N/A Rain , Thunderstorm Light Thunderstorms and Rain
4:50 PM 68.0 °F 64.4 °F 88% 29.95 in 5.6 mi NNE 9.2 mph - N/A Rain , Thunderstorm Light Thunderstorms and Rain
5:20 PM 68.0 °F 64.4 °F 88% 29.95 in 6.2 mi ENE 5.8 mph - N/A   Scattered Clouds
5:50 PM 71.6 °F 62.6 °F 73% 29.92 in 6.2 mi ESE 3.5 mph - N/A   Partly Cloudy
6:20 PM 71.6 °F 64.4 °F 78% 29.92 in - SE 4.6 mph - N/A   Clear
6:50 PM 71.6 °F 64.4 °F 78% 29.92 in - SSE 6.9 mph - N/A   Clear
7:20 PM 73.4 °F 64.4 °F 73% 29.92 in - SSW 9.2 mph - N/A   Clear
7:50 PM 73.4 °F 57.2 °F 57% 29.92 in - WSW 9.2 mph - N/A   Clear
8:20 PM 73.4 °F 55.4 °F 53% 29.89 in - SW 9.2 mph - N/A   Clear
8:50 PM 71.6 °F 55.4 °F 57% 29.89 in - WSW 6.9 mph - N/A   Clear
9:00 PM 72 °F 55 °F 46% 29.91 in 6 mi 6.7 mph - -   Clear
9:20 PM 71.6 °F 55.4 °F 57% 29.89 in - SW 6.9 mph - N/A   Clear
9:50 PM 69.8 °F 57.2 °F 64% 29.89 in - WSW 6.9 mph - N/A   Clear
10:20 PM 68.0 °F 57.2 °F 68% 29.89 in - WSW 5.8 mph - N/A   Clear
10:50 PM 66.2 °F 57.2 °F 73% 29.89 in - SW 5.8 mph - N/A   Clear
11:20 PM 66.2 °F 59.0 °F 78% 29.89 in - SW 5.8 mph - N/A   Clear
11:50 PM 64.4 °F 59.0 °F 83% 29.89 in - SSW 5.8 mph - N/A   Clear